STARLINK-4736 (53791 NORAD) Tracking and Keplerian Element Data

This shows tracking and keplerian element data for the satellite.

Feedback or suggestion? Click here.




ElementValue
Catalog53791
NameSTARLINK-4736
Epoch Orbit860
Epoch Day308.16711313
Epoch Year2022
RAAN353.4169
Inclination53.1977
Eccentricity0.0011947
Argument of Perigee43.883
Mean Anonmoly316.315
Mean Motion16.03599463
Decay Rate0.00722996
L11 53791U 22111U 22308.16711313 .00722996 26344-3 11120-2 0 9994
L22 53791 53.1977 353.4169 0011947 43.8830 316.3150 16.03599463 8607



Live tracking and technical data element details for STARLINK-4736 (NORAD 53791). STARLINK-4736 can be tracked NOW for your location showing map with azimuth and elevation plus other details from your city location.







IsCatalogInMostPopularTable: catalog: 53791, numindb: -1

Insert: records affected: 1


GetName: 53791 STARLINK-4736

Hit Count: inserted at: Mon, 28 Nov 2022 05:40:14 GMT